Location: Dumpton Point
(51.3500°N, 1.4433°E)
Time: 23:21:47
(UTC+00:00)

COSMOS 2406 - Pass Details

Date: 09 April 2020
Orbit: 842 x 865 km, 71.0° (Epoch: 04 June)

Event Time Altitude Azimuth Distance (km) Brightness Sun altitude
Exits shadow 20:54:57 23° 177° (S) 1,745 4.4 -19.1°
Maximum altitude 20:58:21 51° 111° (ESE) 1,059 3.3 -19.5°
Drops below altitude 10° 21:03:52 10° 38° (NE) 2,493 5.7 -20.1°
Sets 21:06:23 0° 33° (NNE) 3,437 6.5 -20.4°
